Weather History for KGTF - October, 2014

Change the Weather History Date:

Tuesday, October 21, 2014

  Actual Average Record
Temperature  
Mean Temperature 53 °F 44 °F  
Max Temperature 63 °F 56 °F 80 °F (1915)
Min Temperature 42 °F 31 °F 10 °F (1930)
Degree Days  
Heating Degree Days 12 21  
Month to date heating degree days 233 378  
Since 1 July heating degree days 558 785  
Cooling Degree Days 0 0  
Month to date cooling degree days 1 0  
Year to date cooling degree days 350 297  
Growing Degree Days 3 (Base 50)    
Moisture  
Dew Point 40 °F    
Average Humidity 67    
Maximum Humidity 100    
Minimum Humidity 34    
Precipitation  
Precipitation 0.35 in 0.03 in 0.46 in (1975)
Month to date precipitation 0.47 0.64  
Year to date precipitation 17.65 13.39  
Snow  
Snow 0.00 in 0.20 in 3.20 in (1975)
Month to date snowfall 1.1 2.4  
Since 1 July snowfall 1.1 3.9  
Since 1 September snowfall 1.1 3.6  
Snow Depth 0.00 in    
Sea Level Pressure  
Sea Level Pressure 29.73 in    
Wind  
Wind Speed 12 mph (SW)    
Max Wind Speed 30 mph    
Max Gust Speed 38 mph    
Visibility 8 miles    
Events Rain    
T = Trace of Precipitation, MM = Missing Value Source: NWS Daily Summary

Daily Weather History Graph

Daily Weather History Graph

Search for Another Location

Airport or City:

Trip Planner

Search our weather history database for the weather conditions in past years. The results will help you decide how hot, cold, wet, or windy it might be!

Date:

Astronomy

Oct. 21, 2014 Rise Set
Actual Time 7:52 AM MDT 6:26 PM MDT
Civil Twilight 7:21 AM MDT 6:57 PM MDT
Nautical Twilight 6:45 AM MDT 7:33 PM MDT
Astronomical Twilight 6:10 AM MDT 8:08 PM MDT
Moon 5:31 AM MDT (10/21) 5:29 PM MDT (10/21)
Length of Visible Light 11h 36m
Length of Day
10h 33m
Waning Crescent, 5% of the Moon is Illuminated
Oct 21
Waning Crescent
Oct 23
New
Oct 30
First Quarter
Nov 6
Full
Nov 14
Last Quarter

Hourly Weather History & Observations

Time (MDT) Temp. Windchill Dew Point Humidity Pressure Visibility Wind Dir Wind Speed Gust Speed Precip Events Conditions
12:53 AM 61.0 °F - 34.0 °F 36% 29.60 in 10.0 mi South 15.0 mph - N/A   Clear
1:53 AM 62.1 °F - 34.0 °F 35% 29.59 in 10.0 mi South 17.3 mph - N/A   Clear
2:53 AM 61.0 °F - 34.0 °F 36% 29.58 in 10.0 mi South 13.8 mph - N/A   Clear
3:53 AM 57.9 °F - 35.1 °F 42% 29.59 in 10.0 mi South 11.5 mph - N/A   Clear
4:53 AM 55.4 °F - 33.8 °F 44% 29.67 in 10.0 mi South 4.6 mph - N/A   Clear
5:53 AM 52.0 °F - 35.1 °F 53% 29.61 in 10.0 mi South 8.1 mph - N/A   Clear
6:53 AM 52.0 °F - 36.0 °F 54% 29.62 in 10.0 mi South 6.9 mph - N/A   Clear
7:53 AM 57.0 °F - 37.0 °F 47% 29.60 in 10.0 mi SSW 10.4 mph - N/A   Partly Cloudy
8:53 AM 50.0 °F - 37.9 °F 63% 29.64 in 10.0 mi NNE 3.5 mph - 0.00 in Rain Light Rain
9:53 AM 54.0 °F - 36.0 °F 51% 29.62 in 10.0 mi NNW 4.6 mph - 0.00 in   Mostly Cloudy
10:53 AM 59.0 °F - 37.0 °F 44% 29.61 in 10.0 mi NNE 4.6 mph - N/A   Overcast
11:53 AM 55.9 °F - 37.0 °F 49% 29.65 in 10.0 mi NW 13.8 mph - 0.00 in Rain Light Rain
12:53 PM 51.8 °F - 42.8 °F 71% 29.71 in 10.0 mi NNW 24.2 mph 33.4 mph N/A   Overcast
1:53 PM 48.0 °F - 45.0 °F 89% 29.72 in 5.0 mi NW 12.7 mph - 0.01 in Rain Light Rain
2:06 PM 48.2 °F - 44.6 °F 87% 29.76 in 2.5 mi WSW 10.4 mph - 0.02 in Rain Light Rain
2:19 PM 46.4 °F 40.4 °F 44.6 °F 93% 29.77 in 2.5 mi West 13.8 mph 23.0 mph 0.04 in Rain Rain
2:31 PM 46.4 °F 40.7 °F 46.4 °F 100% 29.77 in 2.0 mi West 12.7 mph - 0.10 in Rain Rain
2:37 PM 46.4 °F 40.7 °F 44.6 °F 93% 29.78 in 3.0 mi WSW 12.7 mph - 0.11 in Rain Rain
2:53 PM 46.9 °F - 45.0 °F 93% 29.76 in 9.0 mi West 12.7 mph - 0.12 in Rain Light Rain
3:53 PM 46.9 °F - 46.0 °F 97% 29.79 in 6.0 mi WSW 10.4 mph - 0.06 in Rain Light Rain
4:00 PM 46.4 °F 41.1 °F 46.4 °F 100% 29.79 in 6.0 mi SW 11.5 mph - 0.01 in Rain Light Rain
4:15 PM 46.4 °F 39.8 °F 44.6 °F 93% 29.79 in 6.0 mi WSW 16.1 mph - 0.03 in Rain Light Rain
4:35 PM 44.6 °F 38.1 °F 44.6 °F 100% 29.80 in 7.0 mi WSW 13.8 mph - 0.04 in Rain Light Rain
4:53 PM 45.0 °F 38.5 °F 44.1 °F 97% 29.82 in 7.0 mi WSW 13.8 mph - 0.06 in Rain Light Rain
5:53 PM 45.0 °F 38.9 °F 44.1 °F 97% 29.85 in 6.0 mi SSW 12.7 mph - 0.06 in Rain Light Rain
6:53 PM 45.0 °F 39.7 °F 42.1 °F 90% 29.86 in 10.0 mi SSW 10.4 mph - 0.04 in Rain Light Rain
7:53 PM 44.1 °F 37.4 °F 41.0 °F 89% 29.86 in 10.0 mi SSW 13.8 mph - 0.00 in   Overcast
8:53 PM 44.1 °F 36.5 °F 39.0 °F 82% 29.88 in 10.0 mi SW 17.3 mph - N/A   Scattered Clouds
9:53 PM 44.1 °F 37.4 °F 37.9 °F 79% 29.89 in 10.0 mi SW 13.8 mph - N/A   Clear
10:53 PM 44.1 °F 38.1 °F 37.0 °F 76% 29.88 in 10.0 mi SW 11.5 mph - N/A   Clear
11:53 PM 42.1 °F 34.9 °F 36.0 °F 79% 29.92 in 10.0 mi SSW 13.8 mph - N/A   Clear